Sitka, Alaska, United States (99835)
Lat: 57.05N, Lon: 135.33W
Wx Zone: AKZ023
Local Info
Past Weather Observations for Friday, August 22, 2014

NOTE: This archive is for the closest National Weather Service station to Sitka. Information may differ from the station used for current weather conditions.

Click here for Long-term Archive

Time Weather Temperature Dewpoint Humidity Pressure Winds Precip Visibility
23:53
Overcast
Light Rain
57°F / 14°C 55°F / 13°C 94% 30.15 in
(1021 mb)
NNW 3.5 mph
(NNW 6 kph)
0.00 in
(0.00 mm)
10SM
22:53
Overcast
Light Rain
57°F / 14°C 55°F / 13°C 94% 30.18 in
(1022 mb)
ENE 3.5 mph
(ENE 6 kph)
0.00 in
(0.00 mm)
10SM
21:53
Overcast
Light Rain
59°F / 15°C 54°F / 12°C 82% 30.18 in
(1022 mb)
NW 9.2 mph
(NW 15 kph)
0.00 in
(0.00 mm)
10SM
21:27
Overcast
Light Rain
59°F / 15°C 54°F / 12°C 82% 30.18 in
(1022 mb)
NW 8.1 mph
(NW 13 kph)
0.00 in
(0.00 mm)
10SM
21:16
Overcast
59°F / 15°C 54°F / 12°C 82% 30.18 in
(1022 mb)
NW 10.4 mph
(NW 17 kph)
- 10SM
20:53
Mostly Cloudy
59°F / 15°C 54°F / 12°C 82% 30.18 in
(1022 mb)
NW 10.4 mph
(NW 17 kph)
- 10SM
19:53
Overcast
59°F / 15°C 54°F / 12°C 82% 30.18 in
(1022 mb)
NNW 8.1 mph
(NNW 13 kph)
- 10SM
18:53
Overcast
61°F / 16°C 54°F / 12°C 77% 30.18 in
(1022 mb)
NNW 9.2 mph
(NNW 15 kph)
- 10SM
17:53
Overcast
61°F / 16°C 54°F / 12°C 77% 30.18 in
(1022 mb)
NW 10.4 mph
(NW 17 kph)
- 10SM
16:53
Overcast
64°F / 18°C 55°F / 13°C 73% 30.18 in
(1022 mb)
NW 5.8 mph
(NW 9 kph)
- 10SM
15:53
Overcast
64°F / 18°C 54°F / 12°C 68% 30.18 in
(1022 mb)
WNW 8.1 mph
(WNW 13 kph)
- 10SM
14:53
Clear
64°F / 18°C 54°F / 12°C 68% 30.21 in
(1023 mb)
NW 5.8 mph
(NW 9 kph)
- 10SM
13:53
Mostly Cloudy
63°F / 17°C 54°F / 12°C 73% 30.21 in
(1023 mb)
SSW 5.8 mph
(SSW 9 kph)
- 10SM
12:53
Mostly Cloudy
64°F / 18°C 54°F / 12°C 68% 30.24 in
(1024 mb)
WNW 5.8 mph
(WNW 9 kph)
- 10SM
11:53
Mostly Cloudy
63°F / 17°C 54°F / 12°C 73% 30.24 in
(1024 mb)
WNW 8.1 mph
(WNW 13 kph)
- 10SM
10:53
Mostly Cloudy
61°F / 16°C 54°F / 12°C 77% 30.21 in
(1023 mb)
NW 4.6 mph
(NW 7 kph)
- 10SM
09:53
Mostly Cloudy
59°F / 15°C 54°F / 12°C 82% 30.21 in
(1023 mb)
Calm - 10SM
08:53
Overcast
57°F / 14°C 54°F / 12°C 88% 30.21 in
(1023 mb)
Calm - 10SM
07:53
Overcast
57°F / 14°C 54°F / 12°C 88% 30.21 in
(1023 mb)
NW 9.2 mph
(NW 15 kph)
- 10SM
06:53
Overcast
55°F / 13°C 54°F / 12°C 94% 30.21 in
(1023 mb)
NW 6.9 mph
(NW 11 kph)
- 10SM
05:53
Mostly Cloudy
55°F / 13°C 54°F / 12°C 94% 30.21 in
(1023 mb)
NW 3.5 mph
(NW 6 kph)
- 10SM
04:53
Mostly Cloudy
55°F / 13°C 54°F / 12°C 94% 30.21 in
(1023 mb)
N 8.1 mph
(N 13 kph)
- 10SM
04:34
Partly Cloudy
55°F / 13°C 54°F / 12°C 94% 30.21 in
(1023 mb)
NW 8.1 mph
(NW 13 kph)
- 10SM
04:20
Mostly Cloudy
55°F / 13°C 54°F / 12°C 94% 30.21 in
(1023 mb)
NNW 5.8 mph
(NNW 9 kph)
- 10SM
04:09
Partly Cloudy
55°F / 13°C 54°F / 12°C 94% 30.21 in
(1023 mb)
NNW 5.8 mph
(NNW 9 kph)
- 10SM
03:53
Partly Cloudy
55°F / 13°C 54°F / 12°C 94% 30.21 in
(1023 mb)
NNE 3.5 mph
(NNE 6 kph)
- 10SM
02:53
Clear
55°F / 13°C 54°F / 12°C 94% 30.21 in
(1023 mb)
N 4.6 mph
(N 7 kph)
- 10SM
02:41
Partly Cloudy
55°F / 13°C 54°F / 12°C 94% 30.21 in
(1023 mb)
NNW 6.9 mph
(NNW 11 kph)
- 10SM
01:53
Mostly Cloudy
57°F / 14°C 54°F / 12°C 88% 30.21 in
(1023 mb)
N 5.8 mph
(N 9 kph)
- 10SM
01:50
Partly Cloudy
57°F / 14°C 54°F / 12°C 88% 30.21 in
(1023 mb)
N 6.9 mph
(N 11 kph)
- 10SM
00:53
Clear
57°F / 14°C 55°F / 13°C 94% 30.21 in
(1023 mb)
NW 9.2 mph
(NW 15 kph)
- 10SM
Time Weather Temperature Dewpoint Humidity Pressure Winds Precip Visibility


Weather for websites

WeatherForYou.com, LLC is not responsible for any damages or problems caused by this service. Current weather conditions are obtained from the closest station including government and personal stations which may have varying degrees of accuracy. Weather forecasts are derived from the NOAA NDFD. Like all things, this site belongs to Jesus Christ... He just trusts me to maintain it. If you have any questions or comments email webmaster@weatherforyou.com

Copyright © 2014, WeatherForYou.com LLC. All rights reserved.